Theta_e
313 313 313 312 312 312 312 311 312 311 312 313 315 315 315 313 312 312 317 318 322 322 322 325 332 331 333 336 347 350 354 357 358 356 357 353 353 349 343 347 345 343 346 345 345
314 314 314 314 314 313 313 313 313 311 313 313 313 314 313 312 311 318 318 320 321 321 321 323 328 332 335 340 348 354 351 353 354 350 353 355 349 347 347 346 345 342 345 345 345
315 315 315 315 314 314 314 313 313 312 313 312 313 313 312 312 326 321 322 322 321 318 319 322 327 327 328 343 348 353 360 354 356 350 348 353 354 351 347 348 344 343 343 345 345
317 316 316 316 316 316 315 314 314 313 312 315 313 313 313 320 337 323 323 322 318 319 322 324 327 326 329 349 353 358 353 351 353 354 351 352 350 351 347 347 342 340 339 342 344
321 320 319 318 317 316 316 314 314 313 311 315 315 314 323 330 323 327 322 319 317 320 323 326 328 328 344 350 350 354 352 352 351 351 351 352 356 355 349 344 340 340 340 339 339
321 321 321 320 319 318 316 315 313 315 314 312 317 316 326 332 329 329 318 316 320 322 323 324 327 329 346 350 349 351 351 352 351 350 348 353 354 351 349 349 343 341 340 340 340
322 321 322 321 321 319 318 315 313 319 321 314 317 322 330 332 328 328 318 321 323 324 323 326 327 327 342 350 349 351 351 349 351 349 350 350 353 348 345 348 350 349 339 341 340
322 322 322 322 321 320 319 315 314 321 321 315 317 327 332 329 332 327 323 322 323 323 325 326 327 325 339 342 350 352 355 361 350 351 349 346 357 348 345 348 351 344 342 342 340
322 321 320 321 321 321 319 315 316 320 315 316 320 327 331 329 326 326 326 325 325 327 327 327 326 325 342 348 352 351 352 359 355 350 349 348 350 350 346 347 351 350 343 342 340
321 321 319 319 320 321 320 314 320 322 324 325 325 329 332 333 330 326 325 324 323 324 325 326 325 326 336 347 352 348 349 351 355 354 350 350 351 348 344 349 349 350 344 342 341
318 318 317 316 319 321 319 318 330 329 331 331 330 330 331 330 326 324 325 323 322 322 324 324 325 325 344 344 343 344 345 354 350 355 352 354 353 353 345 347 346 349 349 346 342
314 313 314 316 318 321 316 318 325 326 324 331 331 331 330 324 323 324 324 324 321 320 323 323 324 326 337 343 344 343 343 350 350 353 352 353 356 345 348 346 344 346 348 348 346
312 312 314 316 320 322 316 319 323 324 323 325 326 331 330 324 323 323 323 322 320 320 322 323 326 327 331 341 342 341 341 349 353 356 348 355 352 343 346 349 347 348 344 348 347
313 314 314 317 324 324 325 324 323 324 324 328 327 328 327 324 323 325 324 322 323 322 323 323 325 327 326 326 326 326 336 346 343 344 353 352 360 350 352 352 350 348 349 349 347
312 313 315 317 321 325 323 324 322 323 332 332 328 328 325 323 324 323 324 323 322 322 323 323 324 324 324 325 324 324 336 336 338 346 346 353 342 352 345 345 349 348 348 348 348
311 313 315 319 322 323 325 325 322 325 332 332 329 327 326 324 325 325 323 322 323 323 321 320 322 323 322 324 323 327 332 332 334 337 340 343 346 354 349 353 353 350 348 348 348
312 313 315 316 323 324 325 323 322 328 330 331 328 328 326 325 326 324 323 321 321 322 322 323 321 325 324 321 323 327 324 345 346 349 348 340 343 349 350 347 349 344 344 345 349
312 315 320 323 322 326 324 323 325 326 325 325 329 329 327 327 325 323 323 321 321 321 322 321 320 324 324 321 325 325 323 343 350 350 347 338 350 347 348 343 340 340 340 345 347
314 319 322 324 327 325 324 325 323 323 325 325 323 328 327 328 327 324 322 322 322 321 322 324 327 325 324 325 327 334 333 332 337 340 343 341 341 344 342 346 345 344 346 349 349
319 322 326 327 327 324 326 325 323 321 321 322 323 324 326 327 326 324 324 324 324 324 322 323 330 325 325 326 327 330 328 330 332 338 347 350 347 342 343 348 351 351 343 339 347
322 330 330 327 324 324 326 327 325 324 325 324 323 323 324 327 329 328 326 327 325 325 323 322 325 333 328 328 327 326 324 325 325 334 343 350 343 340 340 346 341 342 346 342 349
324 332 326 325 326 326 326 326 323 326 326 326 325 322 324 324 326 331 331 328 328 325 324 323 323 334 331 330 325 324 324 324 329 334 340 343 343 335 337 341 335 340 347 347 347
324 330 330 324 330 330 328 327 327 327 327 326 325 323 323 323 325 331 331 330 330 324 323 325 322 323 327 333 328 326 325 328 326 330 339 344 344 339 335 346 344 344 343 345 348
324 335 331 328 329 329 329 330 330 328 327 326 326 324 324 323 323 327 330 328 328 329 335 327 324 325 325 339 337 338 336 331 327 331 339 341 342 340 339 343 347 347 347 348 347
326 332 329 332 331 331 331 332 334 332 328 328 326 324 323 322 324 324 328 327 328 334 330 326 328 330 334 336 336 336 336 336 328 329 335 336 341 346 339 338 347 346 344 349 350
326 328 326 328 328 328 329 332 333 331 331 331 331 325 323 323 325 327 327 330 334 331 329 328 329 333 334 335 335 336 336 335 328 327 327 337 341 338 335 340 339 345 346 349 348
319 321 324 326 327 328 328 328 330 331 331 330 330 330 329 328 328 328 326 328 329 330 330 331 330 334 333 335 337 338 336 335 332 328 328 335 337 339 342 340 339 345 344 345 346
Wind_Speed
15 15 16 15 15 15 15 14 15 14 12 10 9 8 9 11 10 9 7 10 10 12 7 9 16 23 25 10 6 7 4 3 3 4 4 12 5 7 7 13 15 8 24 25 34
17 18 18 17 16 16 16 16 16 13 10 8 7 7 7 9 10 13 16 13 9 8 7 12 13 15 12 6 4 5 3 9 11 12 7 6 5 1 3 16 21 21 24 32 32
18 19 20 20 18 19 18 16 15 12 9 6 6 6 6 6 4 8 14 21 16 10 10 13 23 18 11 3 4 3 4 7 12 15 9 9 7 6 9 11 18 21 25 25 29
20 19 20 21 20 21 19 17 15 12 8 5 5 5 4 1 1 1 12 16 12 8 5 12 9 10 4 6 4 5 8 8 4 13 11 3 2 7 9 3 19 16 12 24 20
22 21 21 22 22 23 21 19 16 11 8 6 5 4 1 4 8 5 9 13 11 8 9 12 14 10 7 9 7 6 9 11 5 7 7 10 12 5 7 9 19 16 13 9 13
23 23 23 24 24 26 23 19 15 9 8 7 5 3 1 5 9 7 9 12 11 12 12 17 11 8 8 9 8 2 11 14 8 5 5 10 7 8 5 10 6 18 12 10 18
24 24 26 25 26 26 25 19 14 9 8 8 4 1 5 13 6 7 10 14 11 15 12 24 19 6 4 12 5 16 13 8 5 7 4 11 7 3 6 10 11 17 8 14 10
25 26 26 26 26 26 27 18 13 10 8 7 3 2 7 10 14 15 13 17 15 18 20 19 20 7 6 7 4 6 6 3 8 7 5 2 4 11 9 9 10 12 15 10 11
26 27 27 27 27 27 26 17 10 8 4 2 1 4 8 6 9 13 12 15 17 17 14 17 12 4 3 5 4 4 2 3 6 13 8 6 5 8 8 9 6 6 17 14 9
27 28 29 27 27 29 25 14 9 3 2 4 8 5 7 13 10 13 15 12 8 7 8 9 5 4 4 4 4 4 4 6 6 5 8 6 1 8 7 2 8 3 3 12 10
28 29 30 29 26 30 23 5 0 1 7 9 8 7 13 7 11 10 14 12 6 5 7 10 4 7 10 11 7 13 5 8 4 11 4 4 4 11 8 6 12 7 3 5 14
27 29 31 31 29 24 10 4 10 13 7 17 21 18 27 12 4 8 15 6 6 7 9 7 9 14 12 17 20 13 8 7 9 17 5 9 5 4 3 11 10 8 6 2 6
28 29 30 30 24 11 8 14 18 22 6 16 18 18 16 9 8 10 11 10 8 9 10 10 13 16 11 16 12 16 9 8 8 17 8 13 3 3 7 11 11 11 10 5 10
29 29 29 33 9 18 11 18 14 15 4 7 7 10 13 6 9 13 18 9 5 11 12 10 16 13 4 5 7 5 4 13 10 10 6 7 3 11 11 9 13 18 13 13 13
29 29 29 24 17 8 14 22 18 12 4 8 9 10 10 10 7 9 22 9 11 7 6 11 10 6 8 6 9 9 7 5 3 9 3 10 1 1 6 9 13 18 20 18 16
32 30 31 9 14 18 24 22 18 2 7 6 8 11 12 10 11 11 8 8 8 9 8 10 11 7 9 9 10 9 4 2 5 2 0 8 6 6 7 8 5 6 14 19 19
34 32 31 18 7 10 13 8 0 4 8 10 15 14 12 9 12 13 9 7 6 4 7 10 11 6 5 7 7 2 4 4 6 6 4 14 3 6 10 9 9 21 16 9 20
35 34 21 20 17 9 9 2 5 10 13 9 6 16 13 12 13 11 9 7 11 10 8 7 8 10 8 9 8 7 8 6 6 5 5 7 7 5 19 16 11 7 7 4 10
37 23 13 21 7 8 1 5 6 6 8 12 22 9 10 11 12 8 11 11 11 12 9 4 9 9 9 8 4 5 3 9 5 1 2 4 9 7 13 16 13 10 3 4 6
22 10 11 13 14 10 2 5 6 11 16 16 13 7 14 13 11 10 13 16 16 16 10 11 3 5 9 7 9 7 2 3 3 2 3 5 12 3 8 9 16 12 7 3 2
6 4 6 22 19 2 4 6 8 15 15 6 11 17 16 6 6 8 14 12 21 17 12 10 4 3 5 6 8 1 4 4 2 5 5 6 6 6 6 19 15 10 7 7 5
7 4 15 14 3 4 8 7 5 16 19 17 16 13 9 10 13 7 11 11 10 14 10 10 4 4 9 9 10 9 8 8 5 4 3 2 5 7 5 19 16 15 14 11 11
5 5 11 13 4 7 13 19 20 19 19 13 15 11 11 9 7 6 12 13 15 10 10 6 3 1 6 5 3 7 9 7 1 3 4 6 5 2 7 19 15 14 7 8 6
4 4 2 5 6 9 12 13 17 15 18 15 13 8 6 9 12 7 10 9 13 12 6 6 5 7 6 4 3 6 10 12 2 4 3 5 1 10 3 10 15 11 9 7 7
3 3 8 5 8 14 13 14 15 16 15 11 5 5 8 8 13 8 7 9 10 12 5 5 3 1 7 9 11 2 13 18 8 7 5 8 9 9 10 10 12 13 10 9 9
3 4 8 11 12 12 10 12 15 16 13 15 9 11 11 8 8 8 5 2 3 8 5 8 3 1 2 11 9 7 22 16 2 3 4 10 8 14 9 6 10 13 12 11 9
13 11 5 7 10 10 7 14 18 13 12 16 15 18 3 4 9 9 6 2 4 3 4 4 2 2 5 6 6 4 7 6 15 3 3 9 8 9 8 8 7 8 9 10 9
Wind_Direction
11 5 356 349 343 338 335 333 332 327 323 309 294 287 286 291 294 272 243 230 249 243 267 260 257 248 257 263 110 117 92 341 149 302 208 256 279 331 120 145 153 111 127 133 133
11 6 360 352 345 339 335 330 330 329 327 309 293 287 297 306 309 258 235 236 237 240 254 256 270 268 245 233 121 102 111 200 180 177 214 251 270 290 106 93 108 111 125 136 136
8 4 1 355 348 343 334 329 329 329 327 315 294 294 310 333 285 237 226 228 237 254 246 273 281 288 299 78 151 97 152 176 198 181 207 230 60 335 98 84 126 130 137 144 145
7 0 358 356 349 344 336 330 327 321 310 304 302 303 311 25 224 242 194 208 220 228 249 270 272 276 273 91 13 111 122 129 126 186 189 68 257 50 44 177 128 132 150 159 162
5 2 357 354 349 345 338 330 325 313 290 279 287 308 24 230 251 232 193 208 209 205 236 256 277 287 62 85 5 156 131 103 124 150 101 84 50 73 55 48 133 146 164 172 115
0 359 356 352 349 346 339 332 327 317 279 261 267 297 266 257 185 194 196 199 201 200 243 254 264 312 98 45 54 325 108 118 110 118 142 97 71 65 285 328 103 160 175 152 131
354 353 353 350 346 342 339 331 324 309 293 249 246 334 256 246 178 178 173 211 212 232 240 262 307 23 96 116 255 19 98 90 122 140 113 124 66 315 277 354 318 284 160 125 140
349 348 347 345 343 338 336 329 320 312 281 243 198 173 253 278 245 202 191 215 226 237 259 290 301 1 95 156 66 93 314 10 181 183 165 211 195 208 217 245 274 193 134 132 132
345 344 342 340 339 334 330 324 311 318 306 238 193 209 267 228 207 233 214 220 225 239 257 270 283 230 149 86 34 272 178 145 210 211 163 193 139 196 190 229 241 324 146 158 174
340 340 338 335 334 331 325 314 300 295 313 307 264 292 255 243 212 209 217 228 221 221 251 249 266 255 353 130 266 206 141 156 230 237 175 143 100 145 207 103 255 314 185 165 159
339 336 334 331 330 328 324 338 65 178 237 215 185 226 270 182 125 200 191 224 253 200 237 250 236 237 177 152 230 233 151 166 257 197 125 148 49 354 179 174 254 198 327 285 152
338 335 332 328 326 320 308 254 263 325 289 225 243 261 251 138 150 214 189 195 216 209 233 274 228 243 189 172 198 192 180 190 233 165 112 115 110 277 247 197 217 239 182 274 93
338 337 334 328 326 316 270 252 283 301 288 284 245 220 239 152 217 188 160 224 190 221 222 227 248 240 196 188 196 217 200 165 199 171 80 121 84 230 282 209 213 229 191 109 125
339 338 336 335 322 331 292 313 294 319 295 260 184 222 208 184 237 185 176 205 217 213 233 232 255 261 218 318 298 311 137 162 184 164 199 199 206 217 230 207 204 213 163 157 157
335 335 331 337 297 304 298 338 334 314 298 156 157 173 157 171 212 200 172 231 247 229 201 251 256 288 296 229 249 255 169 255 245 193 203 199 109 89 150 200 210 203 189 170 173
330 328 328 341 300 289 317 312 301 291 247 184 145 153 156 211 255 155 156 219 266 274 260 253 274 230 223 252 248 249 172 212 297 300 322 221 161 205 203 206 159 217 191 183 171
325 320 314 288 240 314 341 323 322 229 304 173 162 173 187 186 237 156 171 200 234 231 265 263 257 236 251 247 243 56 358 14 20 7 234 287 327 224 191 194 202 207 201 177 171
323 318 308 270 273 311 298 325 239 243 240 302 173 185 192 190 212 171 175 206 227 249 276 208 253 212 203 212 200 192 179 150 178 207 250 317 141 229 181 192 220 250 170 169 177
325 323 277 266 250 212 217 221 213 226 276 337 337 224 196 195 222 157 177 200 225 222 222 255 275 170 187 224 199 224 173 206 156 315 85 0 317 76 165 199 222 217 206 132 203
326 302 267 232 181 196 213 246 249 258 301 322 315 301 309 193 213 180 191 205 217 222 209 254 294 193 191 188 262 194 239 38 316 235 130 27 275 148 154 148 99 121 102 70 214
314 277 161 138 160 159 225 241 272 275 286 278 284 287 306 337 275 234 212 215 206 221 213 235 170 177 200 183 205 275 262 261 179 150 145 168 252 192 141 124 125 146 142 135 287
310 276 164 167 190 214 231 246 245 271 284 288 294 297 283 305 308 316 304 250 228 195 214 213 210 195 211 237 185 213 230 185 132 289 82 94 306 219 126 136 131 148 172 183 215
308 282 259 196 247 249 253 256 249 250 262 266 270 283 300 299 307 323 312 297 320 169 194 223 222 317 311 351 227 190 252 251 300 85 130 129 251 76 112 136 154 152 190 222 139
288 294 329 215 243 265 283 287 294 288 241 245 267 269 310 311 288 279 300 311 345 321 127 109 165 161 198 180 181 339 329 325 311 80 195 166 147 355 196 114 134 138 142 134 130
250 340 344 310 334 329 319 318 312 299 300 284 234 249 262 275 288 273 280 301 302 284 223 117 178 298 127 177 173 110 324 307 244 179 147 214 148 116 250 142 149 150 155 142 139
312 340 345 299 300 314 307 309 320 332 344 321 322 228 249 247 243 254 269 1 55 317 46 334 213 211 306 114 150 155 241 278 10 357 13 137 150 201 172 180 144 158 151 154 164
358 338 303 292 302 299 321 326 314 321 313 323 337 327 324 346 4 320 321 356 118 353 332 16 325 156 253 160 82 4 269 322 304 201 235 138 202 170 148 159 175 151 150 165 161